Location: Akho
(42.3047°N, 44.1844°E)
Time: 05:58:23
(UTC+00:00)

Cosmos 1844 Rocket - Pass Details

Date: 07 June 2020
Orbit: 825 x 843 km, 71.0° (Epoch: 05 July)

Event Time Altitude Azimuth Distance (km) Brightness Sun altitude
Rises 00:18:10 0° 334° (NNW) 3,386 6.1 -10.8°
Reaches altitude 10° 00:20:37 10° 332° (NNW) 2,445 5.3 -10.4°
Maximum altitude 00:26:12 74° 248° (WSW) 862 2.6 -9.7°
Drops below altitude 10° 00:31:44 10° 165° (SSE) 2,420 4.8 -8.9°
Sets 00:34:09 0° 163° (SSE) 3,348 5.6 -8.6°
